Weather History for Ornskoldsvik, Sweden

Change the Weather History Date:

Friday, January 18, 2013

  Actual Average Record
Temperature  
Mean Temperature 0 °F -  
Max Temperature 14 °F - - ()
Min Temperature -13 °F - - ()
Degree Days  
Heating Degree Days 64    
Moisture  
Dew Point -4 °F    
Average Humidity 88    
Maximum Humidity 93    
Minimum Humidity 77    
Precipitation  
Precipitation 0.00 in - - ()
Sea Level Pressure  
Sea Level Pressure 30.09 in    
Wind  
Wind Speed 4 mph ()    
Max Wind Speed 7 mph    
Max Gust Speed -    
Visibility 6.2 miles    
Events      
T = Trace of Precipitation, MM = Missing Value Source: Averaged Metar Reports

Daily Weather History Graph

Daily Weather History Graph

Search for Another Location

Airport:

Trip Planner

Search our weather history database for the weather conditions in past years. The results will help you decide how hot, cold, wet, or windy it might be!

Date:

Astronomy

Jan. 18, 2013 Rise Set
Actual Time 8:55 AM CET 2:53 PM CET
Civil Twilight 7:53 AM CET 3:56 PM CET
Nautical Twilight 6:52 AM CET 4:57 PM CET
Astronomical Twilight 5:56 AM CET 5:53 PM CET
Moon 9:37 AM CET (1/18) 12:05 AM CET (1/18)
Length of Visible Light 8h 02m
Length of Day
5h 57m
Waxing Crescent, 45% of the Moon is Illuminated
Jan 18
Waxing Crescent
Jan 19
First Quarter
Jan 27
Full
Feb 3
Last Quarter
Feb 10
New

Hourly Weather History & Observations

Time (CET) Temp. Windchill Dew Point Humidity Pressure Visibility Wind Dir Wind Speed Gust Speed Precip Events Conditions
12:20 AM -13.0 °F -25.1 °F -16.6 °F 84% 30.27 in 6.2 mi WNW 4.6 mph - N/A   Unknown
12:50 AM -13.0 °F -27.0 °F -16.6 °F 84% 30.27 in 6.2 mi WNW 5.8 mph - N/A   Unknown
1:20 AM -13.0 °F -27.0 °F -16.6 °F 84% 30.24 in 6.2 mi West 5.8 mph - N/A   Unknown
1:50 AM -11.2 °F -24.8 °F -14.8 °F 84% 30.24 in 6.2 mi NW 5.8 mph - N/A   Unknown
2:20 AM -11.2 °F -23.0 °F -14.8 °F 84% 30.24 in 6.2 mi NW 4.6 mph - N/A   Unknown
2:50 AM -11.2 °F -23.0 °F -14.8 °F 84% 30.24 in 6.2 mi NW 4.6 mph - N/A   Unknown
3:20 AM -13.0 °F -25.1 °F -18.4 °F 77% 30.24 in 6.2 mi NW 4.6 mph - N/A   Unknown
3:50 AM -11.2 °F -20.6 °F -14.8 °F 84% 30.21 in 6.2 mi NW 3.5 mph - N/A   Unknown
4:20 AM -13.0 °F -25.1 °F -16.6 °F 84% 30.21 in 6.2 mi NW 4.6 mph - N/A   Unknown
4:50 AM -11.2 °F -24.8 °F -14.8 °F 84% 30.21 in 6.2 mi WNW 5.8 mph - N/A   Unknown
5:20 AM -11.2 °F -23.0 °F -14.8 °F 84% 30.18 in 6.2 mi WNW 4.6 mph - N/A   Partly Cloudy
5:50 AM -9.4 °F -20.9 °F -13.0 °F 84% 30.18 in 6.2 mi WNW 4.6 mph - N/A   Unknown
6:20 AM -9.4 °F -22.7 °F -13.0 °F 84% 30.18 in - WNW 5.8 mph - N/A   Clear
6:50 AM -11.2 °F -23.0 °F -14.8 °F 84% 30.18 in - WNW 4.6 mph - N/A   Clear
7:20 AM -9.4 °F -22.7 °F -13.0 °F 84% 30.15 in - WNW 5.8 mph - N/A   Clear
7:50 AM -9.4 °F -20.9 °F -13.0 °F 84% 30.15 in - NW 4.6 mph - N/A   Clear
8:20 AM -9.4 °F -18.6 °F -13.0 °F 84% 30.15 in - West 3.5 mph - N/A   Clear
8:50 AM -11.2 °F -24.8 °F -14.8 °F 84% 30.15 in - NW 5.8 mph - N/A   Clear
9:20 AM -9.4 °F -20.9 °F -13.0 °F 84% 30.15 in - WSW 4.6 mph - N/A   Clear
9:50 AM -11.2 °F -20.6 °F -14.8 °F 84% 30.12 in - WSW 3.5 mph - N/A   Clear
10:20 AM -0.4 °F -13.4 °F -2.2 °F 92% 30.12 in - SW 6.9 mph - N/A   Clear
10:50 AM -2.2 °F -10.4 °F -5.8 °F 85% 30.12 in 6.2 mi West 3.5 mph - N/A   Mostly Cloudy
11:20 AM -0.4 °F -10.4 °F -4.0 °F 85% 30.12 in 6.2 mi NW 4.6 mph - N/A   Mostly Cloudy
11:50 AM -0.4 °F -8.3 °F -2.2 °F 92% 30.09 in 6.2 mi NW 3.5 mph - N/A   Mostly Cloudy
12:20 PM 1.4 °F -6.2 °F -2.2 °F 85% 30.09 in 6.2 mi West 3.5 mph - N/A   Mostly Cloudy
12:50 PM 3.2 °F -4.2 °F 1.4 °F 92% 30.09 in - West 3.5 mph - N/A   Clear
1:20 PM 3.2 °F -6.2 °F 1.4 °F 92% 30.06 in - West 4.6 mph - N/A   Clear
1:50 PM 3.2 °F -6.2 °F 1.4 °F 92% 30.06 in - West 4.6 mph - N/A   Clear
2:20 PM 1.4 °F -8.3 °F -0.4 °F 92% 30.06 in - West 4.6 mph - N/A   Clear
2:50 PM 3.2 °F -4.2 °F 1.4 °F 92% 30.04 in - WSW 3.5 mph - N/A   Clear
3:20 PM 3.2 °F -6.2 °F 1.4 °F 92% 30.04 in - West 4.6 mph - N/A   Clear
3:50 PM 5.0 °F -5.6 °F 1.4 °F 85% 30.04 in - West 5.8 mph - N/A   Clear
4:20 PM 5.0 °F -4.1 °F 3.2 °F 92% 30.01 in - West 4.6 mph - N/A   Clear
4:50 PM 6.8 °F -2.0 °F 5.0 °F 92% 30.01 in - West 4.6 mph - N/A   Clear
5:20 PM 6.8 °F - 5.0 °F 92% 30.01 in - WSW 2.3 mph - N/A   Clear
5:50 PM 6.8 °F -0.1 °F 3.2 °F 85% 30.01 in - West 3.5 mph - N/A   Clear
6:20 PM 5.0 °F - 3.2 °F 92% 30.01 in - West 2.3 mph - N/A   Clear
6:50 PM 5.0 °F -2.1 °F 3.2 °F 92% 29.98 in - WSW 3.5 mph - N/A   Clear
7:20 PM 5.0 °F - 3.2 °F 92% 29.98 in - Variable 2.3 mph - N/A   Clear
7:50 PM 6.8 °F -0.1 °F 5.0 °F 92% 29.98 in - WSW 3.5 mph - N/A   Clear
8:20 PM 8.6 °F 2.0 °F 6.8 °F 92% 29.95 in - WSW 3.5 mph - N/A   Clear
8:50 PM 10.4 °F - 8.6 °F 92% 29.95 in - WNW 2.3 mph - N/A   Clear
9:20 PM 10.4 °F - 8.6 °F 92% 29.95 in - Variable 2.3 mph - N/A   Clear
9:50 PM 12.2 °F 4.3 °F 10.4 °F 92% 29.95 in 6.2 mi West 4.6 mph - N/A   Overcast
10:20 PM 14.0 °F 6.5 °F 12.2 °F 93% 29.92 in 6.2 mi West 4.6 mph - N/A   Overcast
10:50 PM 12.2 °F - 10.4 °F 92% 29.92 in 6.2 mi Variable 1.2 mph - N/A   Scattered Clouds
11:20 PM 12.2 °F 2.9 °F 10.4 °F 92% 29.92 in 6.2 mi West 5.8 mph - N/A   Partly Cloudy
11:50 PM 10.4 °F 0.8 °F 8.6 °F 92% 29.89 in 6.2 mi West 5.8 mph - N/A   Partly Cloudy